Home > Weather > Bowling Green > Past weeks

Flag for USA Past Weather in Bowling Green, Kentucky, USA — Yesterday and Last 2 Weeks

Now
87 °F

Broken clouds.


Feels Like: 94 °F
Forecast: 75 / 92 °F
Wind: 5 mph from West

Location: Glasgow Municipal Airport

Current Time: Aug 25, 2016 at 1:47:06 PM

Latest Report: Aug 25, 2016 at 1:15 PM


Visibility: 10 mi

Pressure: 30.13 "Hg

Humidity: 63%

Dew Point: 72 °F

Location of Bowling GreenLocation

Past Weather in Bowling Green — Graph

°F

Bowling Green Temperature Yesterday

Maximum temperature yesterday: 89 °F (at 3:55 PM)
Minimum temperature yesterday: 66 °F (at 5:15 AM)
Average temperature yesterday: 78 °F

High & Low Weather Summary for the Past Weeks

 TemperatureHumidityPressure
High91 °F (Aug 12, 5:15 PM)100% (Aug 10, 10:15 PM)30.29 "Hg (Aug 10, 10:15 PM)
Low57 °F (Aug 22, 5:55 AM)42% (Aug 22, 2:35 PM)29.78 "Hg (Aug 20, 4:15 PM)
Average76 °F83%30.08 "Hg
* Reported Aug 10 12:15 PM — Aug 25 12:55 PM, Bowling Green, Weather by CustomWeather, © 2016

Note: Actual official high and low records may vary slightly from our data, if they occured in-between our weather recording intervals... More about our weather records

Advertising

Bowling Green Weather History for the Previous 24 Hours

Scroll right to see more
 ConditionsComfort  
Time TempWeatherWind HumidityBarometerVisibility
12:55 PM
Thu, Aug 25
89 °FMostly cloudy.5 mph59%30.13 "Hg10 mi
12:15 PM88 °FMostly cloudy.7 mph63%30.14 "Hg10 mi
11:55 AM87 °FMostly cloudy.7 mph67%30.14 "Hg10 mi
11:15 AM86 °FBroken clouds.6 mph66%30.15 "Hg10 mi
10:55 AM87 °FBroken clouds.5 mph66%30.15 "Hg10 mi
10:35 AM86 °FSunny.5 mph68%30.15 "Hg10 mi
10:15 AM84 °FSunny.5 mph69%30.16 "Hg10 mi
9:55 AM83 °FSunny.5 mph73%30.16 "Hg10 mi
9:35 AM82 °FSunny.5 mph73%30.16 "Hg10 mi
9:15 AM82 °FSunny.5 mph74%30.16 "Hg10 mi
8:55 AM80 °FSunny.5 mph76%30.16 "Hg10 mi
8:15 AM78 °FSunny.No wind90%30.16 "Hg10 mi
7:55 AM76 °FSunny.5 mph94%30.16 "Hg10 mi
7:35 AM74 °FScattered clouds.No wind100%30.16 "Hg10 mi
7:15 AM74 °FBroken clouds.No wind99%30.16 "Hg10 mi
6:55 AM73 °FScattered clouds.No wind100%30.16 "Hg10 mi
6:15 AM72 °FScattered clouds.No wind100%30.15 "Hg10 mi
5:55 AM72 °FPassing clouds.No wind100%30.14 "Hg10 mi
5:15 AM71 °FClear.No wind100%30.14 "Hg10 mi
4:55 AM71 °FClear.No wind100%30.13 "Hg10 mi
4:35 AM72 °FClear.No wind100%30.13 "Hg10 mi
4:15 AM72 °FClear.No wind100%30.13 "Hg10 mi
3:55 AM72 °FClear.No wind100%30.13 "Hg10 mi
3:35 AM73 °FClear.No wind100%30.13 "Hg10 mi
3:15 AM73 °FClear.No wind100%30.13 "Hg10 mi
2:55 AM73 °FClear.No wind100%30.13 "Hg10 mi
2:35 AM74 °FClear.No wind100%30.13 "Hg10 mi
2:15 AM74 °FClear.No wind100%30.12 "Hg10 mi
1:55 AM73 °FClear.No wind100%30.12 "Hg10 mi
1:15 AM74 °FClear.No wind100%30.12 "Hg10 mi
12:55 AM74 °FClear.No wind100%30.12 "Hg10 mi
12:35 AM75 °FClear.No wind98%30.12 "Hg10 mi
12:15 AM75 °FClear.No wind96%30.12 "Hg10 mi
11:55 PM
Wed, Aug 24
76 °FClear.No wind94%30.12 "Hg10 mi
11:15 PM77 °FClear.3 mph94%30.12 "Hg10 mi
10:55 PM77 °FClear.5 mph94%30.12 "Hg10 mi
10:35 PM77 °FClear.3 mph95%30.13 "Hg10 mi
10:15 PM76 °FClear.No wind98%30.14 "Hg10 mi
9:55 PM76 °FClear.No wind100%30.14 "Hg10 mi
9:35 PM77 °FClear.No wind97%30.14 "Hg10 mi
9:15 PM77 °FClear.No wind86%30.14 "Hg10 mi
8:55 PM78 °FClear.3 mph85%30.14 "Hg10 mi
8:35 PM80 °FClear.3 mph78%30.13 "Hg10 mi
8:15 PM80 °FClear.3 mph78%30.13 "Hg10 mi
7:55 PM81 °FClear.3 mph76%30.13 "Hg10 mi
7:35 PM82 °FClear.5 mph74%30.12 "Hg10 mi
7:15 PM83 °FSunny.5 mph72%30.12 "Hg10 mi
6:55 PM83 °FSunny.3 mph70%30.13 "Hg10 mi
6:35 PM84 °FSunny.3 mph68%30.12 "Hg10 mi
6:15 PM85 °FScattered clouds.5 mph66%30.12 "Hg10 mi
5:55 PM87 °FScattered clouds.5 mph62%30.12 "Hg10 mi
5:35 PM88 °FSunny.5 mph60%30.13 "Hg10 mi
5:15 PM88 °FSunny.8 mph60%30.13 "Hg10 mi
4:55 PM89 °FSunny.8 mph59%30.12 "Hg10 mi
4:35 PM88 °FScattered clouds.12 mph58%30.13 "Hg10 mi
4:15 PM89 °FScattered clouds.10 mph58%30.13 "Hg10 mi
3:55 PM89 °FSunny.9 mph58%30.13 "Hg10 mi
3:35 PM88 °FSunny.10 mph59%30.14 "Hg10 mi
3:15 PM88 °FScattered clouds.7 mph58%30.14 "Hg10 mi
2:55 PM88 °FScattered clouds.9 mph61%30.15 "Hg10 mi
2:15 PM88 °FScattered clouds.10 mph58%30.16 "Hg10 mi
1:55 PM87 °FScattered clouds.10 mph60%30.17 "Hg10 mi
1:35 PM88 °FBroken clouds.9 mph59%30.18 "Hg10 mi
1:15 PM87 °FBroken clouds.8 mph61%30.19 "Hg10 mi
Weather by CustomWeather, © 2016

See weather overviewHow to use our weather pages